User: anonymous   Login
Location: Hiekkapohja
(62.3333°N, 25.7833°E)
Time: 02:34:09
(UTC+00:00)
Language:

ADEOS II - Orbit

View from above orbital plane
View from above orbital plane
View from above satellite
View from above satellite

Ground track
Ground track

The orbit data is extracted from the following two-line orbital elements,

1 27597U 02056A   20302.57653664 +.00000037 +00000-0 +32714-4 0  9993
2 27597 098.5342 246.8967 0001021 028.5963 331.5274 14.27465379930805
Epoch (UTC): 28 October 2020 13:50:12
Eccentricity: 0.0001021
inclination: 98.5342°
perigee height: 799 km
apogee height: 801 km
right ascension of ascending node: 246.8967°
argument of perigee: 28.5963°
revolutions per day: 14.27465379
mean anomaly at epoch: 331.5274°
orbit number at epoch: 93080

The dashed part of the orbit path shows where the satellite is in the earth's shadow,  

DLR